Location: Newark
(42.8481°N, 0.4872°E)
Time: 18:01:35
(UTC+00:00)

Vanguard 1 - Pass Details

Date: 28 October 2020
Orbit: 650 x 3833 km, 34.2° (Epoch: 23 November)

Event Time Altitude Azimuth Distance (km) Brightness Sun altitude
Rises 09:16:42 0° 185° (S) 6,700 15.0 24.7°
Reaches altitude 10° 09:22:45 10° 170° (S) 6,158 15.3 25.4°
Maximum altitude 09:36:00 21° 130° (SE) 5,884 16.0 26.9°
Drops below altitude 10° 09:50:29 10° 91° (E) 6,888 14.9 28.3°
Sets 09:57:41 0° 78° (ENE) 7,706 14.8 29.0°
